{"data":{"norad_id":89005,"epoch":"2026-05-23T05:34:38.657568Z","epoch_age_seconds":241827,"freshness":"STALE","line1":"1 89005U          26143.23239187  .00001555  00000+0  35734-3 0  9993","line2":"2 89005  97.8440 325.4336 0187689 253.9180 104.1277 14.46585775557437","mean_motion":14.46585775,"eccentricity":0.0187689,"inclination_deg":97.844,"raan_deg":325.4336,"arg_perigee_deg":253.918,"mean_anomaly_deg":104.1277,"bstar":0.00035734,"rev_number":55743,"period_min":99.544736640314,"perigee_km":603.28171522545,"apogee_km":870.36161052064,"semimajor_km":7114.958662873,"source":"CELESTRAK","updated_at":"2026-05-25T13:38:11.776895Z"}}